Showing default

YAOGAN-39 03A, 57986

Orbit data source: Space-Track

YAOGAN-39 03A, 57986 is a payload satellite owned by PLA GAD (CN) in LEO that was launched on Thu, 05 Oct 2023 UTC via a CHANG ZHENG 2D launch vehicle from the Xichang Space Center, China (XSC). Payload-class satellites include a variety of spacecraft equipped with specific instruments for various scientific and technological missions. These include communications satellites like Starlink; space stations such as the ISS; scientific satellites like the Hubble; Earth observation satellites from companies like Planet Labs, Umbra, and HawkEye 360; GPS; miniature CubeSats for education and research; and military/defense satellites.

Loading next visibility...
Identifier
57986, 2023-152A
Orbit
LEO
Country
Flag of CNCN / PRC
Related business
Manufacturer
DFH
Mission
Operational Defense Sigint
Bus & Motor
Unknown
Mass
~300 kg wet, ~300 kg dry
Launch date (UTC)
2023-10-05 (3 years ago)
Launch vehicle
CHANG ZHENG 2D
Launch site
Xichang Space Center, China (XSC)
Object type
Payload
Rocket body
Debris
Shape & HBR
Box + 2 Pan, 2.5 m
Radar Cross Section
11.063 m², Large (>1 m²)

Expand to show TLE details & history
Last TLE update: 22 hours ago

TLE from 22 hours ago
0 YAOGAN-39 03A
1 57986U 23152A   26172.52117243  .00006836  00000-0  28557-3 0  9994
2 57986  35.0003 245.2569 0004434 207.3273 152.7209 15.22929572151108
Epoch: 2026-06-21T12:30Z
TLE epoch observation values (Epoch: 2026-06-21T12:30:29.297Z)
Latitude
-0.00002°
Longitude
147.91455°
Altitude
498.626 km
Speed
7.616 km/s
True Right ascension
16h 21m 01s
True Declination
0° 00' 00"
Sunlit
Object was in full shadow at epoch
Visualization orbit readout
Latitude
Unknown
Longitude
Unknown
Altitude
Unknown
Speed
Unknown
Apparent Right ascension
Unknown
Apparent Declination
Unknown
Sunlit
N/A
Visualization observer readout
Local Sidereal Time
21:31:01
Azimuth
Unknown
Elevation
Unknown
Doppler factor
Unknown
Orbital elements
Apogee altitude
503.309 km
Perigee altitude
497.21 km
Semi-major axis
6,878.397 km
Eccentricity
0.00044
Inclination
35.0003°
RAAN
245.2569°
Arg. of periapsis
207.3273°
True anomaly
152.74418°
Mean anomaly
152.7209°
Eccentric anomaly
152.73254°
Mean motion
3.80463 °/min
Orbital period
94.62 mins
BSTAR
0.00028557
Loading maneuver chart data...
Computing Atmospheric mass density...
Loading historical data...
Loading historical data...
Loading historical data...
Loading historical data...
Loading historical data...
Loading historical data...
Loading historical data...
Other satellites on launch #152 in the year 2023 (2023-10-05 UTC)

Documentation

Showing up to 5 results
|